This is the latest recevied weather packets stored in our database for station/object WY7ATH-2. If no packets are shown the sender has not sent any weather packets the latest 10 day(s).
| Time | Temp. | Humidity | Pressure | Rain* | Wind** | Luminosity | Snow |
|---|---|---|---|---|---|---|---|
| 1777501849 | 5.56° C | - | - | 11.94 mm | 0 m/s | - | - |
| 1777500655 | 5.56° C | - | - | 11.94 mm | 0 m/s | - | - |
| 1777498864 | 7.22° C | - | - | 11.94 mm | 0 m/s | - | - |
| 1777498264 | 7.22° C | - | - | 11.94 mm | 0 m/s | - | - |
| 1777497667 | 7.78° C | - | - | 11.94 mm | 0 m/s | - | - |
| 1777495875 | 7.78° C | - | - | 15.24 mm | 0 m/s | - | - |
| 1777495278 | 7.78° C | - | - | 15.24 mm | 0 m/s | - | - |
| 1777494081 | 8.89° C | - | - | 15.24 mm | 0 m/s | - | - |
| 1777493484 | 13.33° C | - | - | 15.24 mm | 0 m/s | - | - |
| 1777476155 | 10° C | - | - | 7.11 mm | 0 m/s | - | - |
| 1777475559 | 10° C | - | - | 7.11 mm | 0 m/s | - | - |
| 1777473167 | 11.11° C | - | - | 4.32 mm | 0 m/s | - | - |
| 1777471377 | 11.67° C | - | - | 4.32 mm | 0 m/s | - | - |
| 1777470780 | 10° C | - | - | 1.78 mm | 0 m/s | - | - |
| 1777470183 | 9.44° C | - | - | 1.78 mm | 0 m/s | - | - |
| 1777469582 | 7.78° C | - | - | 1.78 mm | 0 m/s | - | - |
| 1777468985 | 6.67° C | - | - | 1.78 mm | 0 m/s | - | - |
| 1777467792 | 3.89° C | - | - | 1.78 mm | 0 m/s | - | - |
| 1777467195 | 3.89° C | - | - | 0 mm | 0 m/s | - | - |
| 1777465400 | 0.56° C | - | - | 0 mm | 0 m/s | - | - |
| 1777464804 | -0.56° C | - | - | 0 mm | 0 m/s | - | - |
| 1777463610 | -1.11° C | - | - | 0 mm | 0 m/s | - | - |
| 1777461816 | -1.11° C | - | - | 0 mm | 0 m/s | - | - |
| 1777461219 | -1.11° C | - | - | 0 mm | 0 m/s | - | - |
| 1777460622 | -2.22° C | - | - | 0 mm | 0 m/s | - | - |
* Rain latest hour (hover to see other rain measurements)
** Current wind speed in m/s (hover to see current wind gust speed)